Location: Newark
(49.8348°N, 24.0280°E)
Time: 15:05:32
(UTC+00:00)

Transit 2A - Pass Details

Date: 27 January 2020
Orbit: 599 x 959 km, 66.7° (Epoch: 25 February)

Event Time Altitude Azimuth Distance (km) Brightness Sun altitude
Rises 23:41:42 0° 325° (NW) 2,904 - -56.0°
Reaches altitude 10° 23:44:50 10° 349° (N) 2,039 - -55.7°
Maximum altitude 23:47:32 15° 26° (NNE) 1,762 - -55.5°
Drops below altitude 10° 23:50:19 10° 61° (ENE) 2,138 - -55.3°
Sets 23:53:44 0° 85° (E) 3,131 - -55.0°
